EHI
0 0 0 0 0 0 0 0 0 0 0 0 0 0 0 0 0 0 0 0 0 0 0 0 0 0 0 0 0 0 0 0 0 0 0 0 0 0 0 0 0 0 0
0 0 0 0 0 0 0 0 0 0 0 0 0 0 0 0 0 0 0 0 0 0 0 0 0 0 0 0 0 0 0 0 0 0 0 0 0 0 0 0 0 0 0
0 0 0 0 0 0 0 0 0 0 0 0 0 0 0 0 0 0 0 0 0 0 0 0 0 0 0 0 0 0 0 0 0 0 0 0 0 0 0 0 0 0 0
0 0 0 0 0 0 0 0 0 0 0 0 0 0 0 0 0 0 0 0 0 0 0 0 0 0 0 0 0 0 0 0 0 0 0 0 0 0 0 0 0 0 0
0 0 0 0 0 0 0 0 0 0 0 0 0 0 0 0 0 0 0 0 0 0 0 0 0 0 0 0 0 0 0 0 0 0 0 0 0 0 0 0 0 0 0
0 0 0 0 0 0 0 0 0 0 0 0 0 0 0 0 0 0 0 0 0 0 0 0 0 0 0 0 0 0 0 0 0 0 0 0 0 0 0 0 0 0 0
0 0 0 0 0 0 0 0 0 0 0 0 0 0 0 0 0 0 0 0 0 0 0 0 0 0 0 0 0 0 0 0 0 0 0 0 0 0 0 0 0 0 0
0 0 0 0 0 0 0 0 0 0 0 0 0 0 0 0 0 0 0 0 0 0 0 0 0 0 0 0 0 0 0 0 0 0 0 0 0 0 0 0 0 0 0
0 0 0 0 0 0 0 0 0 0 0 0 0 0 0 0 0 0 0 0 0 0 0 0 0 0 0 0 0 0 0 0 0 0 0 0 0 0 0 0 0 0 0
0 0 0 0 0 0 0 0 0 0 0 0 0 0 0 0 0 0 0 0 0 0 0 0 0 0 0 0 0 0 0 0 0 0 0 0 0 0 0 0 0 0 0
0 0 0 0 0 0 0 0 0 0 0 0 0 0 0 0 0 0 0 0 0 0 0 0 0 0 0 0 0 0 0 0 0 0 0 0 0 0 0 0 0 0 0
0 0 0 0 0 0 0 0 0 0 0 0 0 0 0 0 0 0 0 0 0 0 0 0 0 0 0 0 0 0 0 0 0 0 0 0 0 0 0 0 0 0 0
0 0 0 0 0 0 0 0 0 0 0 0 0 0 0 0 0 0 0 0 0 0 0 0 0 0 0 0 0 0 0 0 0 0 0 0 0 0 0 0 0 0 0
0 0 0 0 0 0 0 0 0 0 0 0 0 0 0 0 0 0 0 0 0 0 0 0 0 0 0 0 0 0 0 0 0 0 0 0 0 0 0 0 0 0 0
0 0 0 0 0 0 0 0 0 0 0 0 0 0 0 0 0 0 0 0 0 0 0 0 0 0 0 0 0 0 0 0 0 0 0 0 0 0 0 0 0 0 0
0 0 0 0 0 0 0 0 0 0 0 0 0 0 0 0 0 0 0 0 0 0 0 0 0 0 0 0 0 0 0 0 0 0 0 0 0 0 0 0 0 0 0
0 0 0 0 0 0 0 0 0 0 0 0 0 0 0 0 0 0 0 0 0 0 0 0 0 0 0 0 0 0 0 0 0 0 0 0 0 0 0 0 0 0 0
0 0 0 0 0 0 0 0 0 0 0 0 0 0 0 0 0 0 0 0 0 0 0 0 0 0 0 0 0 0 0 0 0 0 0 0 0 0 0 0 0 0 0
0 0 0 0 0 0 0 0 0 0 0 0 0 0 0 0 0 0 0 0 0 0 0 0 0 0 0 0 0 0 0 0 0 0 0 0 0 0 0 0 0 0 0
0 0 0 0 0 0 0 0 0 0 0 0 0 0 0 0 0 0 0 0 0 0 0 0 0 0 0 0 0 0 0 0 0 0 0 0 0 0 0 0 0 0 0
0 0 0 0 0 0 0 0 0 0 0 0 0 0 0 0 0 0 0 0 0 0 0 0 0 0 0 0 0 0 0 0 0 0 0 0 0 0 0 0 0 0 0
0 0 0 0 0 0 0 0 0 0 0 0 0 0 0 0 0 0 0 0 0 0 0 0 0 0 0 0 0 0 0 0 0 0 0 0 0 0 0 0 0 0 0
0 0 0 0 0 0 0 0 0 0 0 0 0 0 0 0 0 0 0 0 0 0 0 0 0 0 0 0 0 0 0 0 0 0 0 0 0 0 0 0 0 0 0
0 0 0 0 0 0 0 0 0 0 0 0 0 0 0 0 0 0 0 0 0 0 0 0 0 0 0 0 0 0 0 0 0 0 0 0 0 0 0 0 0 0 0
0 0 0 0 0 0 0 0 0 0 0 0 0 0 0 0 0 0 0 0 0 0 0 0 0 0 0 0 0 0 0 0 0 0 0 0 0 0 0 0 0 0 0
0 0 0 0 0 0 0 0 0 0 0 0 0 0 0 0 0 0 0 0 0 0 0 0 0 0 0 0 0 0 0 0 0 0 0 0 0 0 0 0 0 0 0
Wind_Speed
4 3 2 2 1 1 2 3 4 5 7 8 8 8 8 7 7 6 6 6 6 5 5 5 5 4 3 3 3 3 3 4 5 1 1 2 4 4 3 2 2 1 2
5 4 3 2 1 1 1 2 4 5 6 6 7 7 7 7 7 7 6 6 6 6 6 6 5 4 5 3 3 3 3 3 3 3 2 3 3 4 4 3 2 1 2
6 4 3 2 2 1 1 2 3 5 5 6 7 7 7 7 7 6 6 6 6 6 6 6 6 6 5 4 4 3 2 2 2 2 2 2 2 3 3 2 2 1 1
6 4 4 3 3 2 2 3 4 5 6 6 7 7 7 7 7 6 6 6 6 5 5 5 5 5 5 4 4 4 3 3 3 3 2 2 2 3 3 2 2 2 1
6 5 4 4 3 3 3 3 4 5 6 6 6 7 7 6 6 7 7 6 6 6 5 5 4 4 3 3 3 3 4 4 3 3 3 3 3 3 4 3 3 2 2
7 6 5 5 4 3 4 4 5 6 6 7 8 8 8 6 8 10 8 7 7 7 6 5 5 5 6 6 5 4 3 4 4 4 4 4 4 4 4 4 3 3 3
7 7 6 6 5 4 4 5 6 7 7 8 8 8 9 9 12 12 11 7 6 6 6 6 5 5 6 5 6 5 3 1 2 4 5 4 4 4 5 5 4 3 2
8 7 7 7 7 6 5 6 6 6 7 8 8 9 8 9 13 13 13 8 6 6 6 7 7 7 6 7 6 5 4 2 1 2 3 2 2 3 4 4 4 3 3
8 8 8 8 8 7 7 7 6 6 7 7 7 8 9 9 14 14 13 7 6 7 7 7 7 8 10 11 7 6 5 4 3 2 2 3 4 4 4 4 4 3 3
9 9 9 9 9 9 8 7 6 6 7 7 7 8 9 9 13 16 15 7 7 7 6 7 10 9 11 13 8 7 7 5 5 5 5 5 5 5 4 3 3 3 2
10 10 10 9 9 9 8 7 6 6 6 7 8 8 9 10 13 17 17 8 8 7 7 7 7 13 13 14 10 7 6 6 6 5 4 4 4 3 3 2 2 2 2
10 10 10 9 8 7 8 7 7 7 7 8 8 8 8 9 11 15 19 16 12 8 7 7 7 14 15 14 11 8 9 8 5 5 5 5 4 4 3 3 2 2 2
11 11 10 10 8 8 8 8 7 7 7 7 7 7 7 7 9 16 18 19 17 9 7 9 11 14 14 11 12 12 11 7 6 6 5 5 4 4 4 3 3 3 3
11 11 10 9 9 8 7 6 6 7 7 7 7 7 7 7 7 8 9 11 15 11 7 10 13 14 11 9 10 10 8 7 7 6 5 4 5 5 4 4 4 4 3
11 11 10 9 9 9 8 7 8 8 8 8 7 7 7 8 11 15 11 9 9 9 8 6 7 8 9 8 8 8 8 8 7 6 5 5 5 5 5 5 4 4 4
10 10 8 8 7 7 8 8 10 12 14 16 14 11 9 12 13 17 19 18 17 17 11 8 9 9 10 10 9 9 9 8 8 7 6 6 6 6 6 5 5 5 5
11 10 8 8 8 8 7 8 8 8 12 14 15 16 14 14 14 16 19 19 20 20 11 9 9 10 9 9 9 9 9 8 7 7 7 7 6 6 6 6 6 6 6
11 10 10 8 8 8 8 7 7 8 7 7 9 14 15 15 15 15 17 16 12 14 9 9 10 9 9 9 9 9 8 8 8 8 8 7 7 7 7 7 7 8 6
10 8 8 8 8 8 8 8 8 8 8 7 6 7 11 12 14 15 15 10 9 10 10 10 9 9 9 9 9 8 9 8 9 8 8 9 8 8 8 8 7 10 8
9 11 11 9 8 8 8 8 7 8 8 7 6 6 5 5 5 7 9 8 9 9 10 10 9 9 9 9 9 9 9 9 9 9 8 8 8 8 9 9 8 8 8
8 9 12 9 8 8 8 8 8 8 7 7 7 7 9 6 6 6 7 8 8 9 9 9 9 9 9 9 9 10 10 9 9 9 9 9 9 9 8 8 8 8 7
8 8 8 8 8 8 8 7 7 8 8 8 7 7 11 7 5 6 6 6 7 7 7 8 8 8 9 9 10 10 10 10 9 9 9 9 8 9 8 8 8 8 8
8 9 9 8 8 10 9 7 7 7 7 7 7 6 6 5 5 5 5 5 6 6 6 7 7 7 8 8 9 9 10 10 10 10 10 9 9 9 9 9 10 10 9
9 9 9 9 8 8 8 8 7 7 7 7 7 6 6 5 5 5 5 5 5 5 6 7 7 9 11 9 8 8 8 8 8 9 12 10 10 9 9 9 9 11 9
8 9 9 8 8 8 8 8 8 7 7 7 6 6 6 5 5 5 5 5 5 6 7 7 6 8 11 12 10 9 11 14 12 9 9 9 10 10 9 10 9 9 9
9 9 8 8 8 8 8 8 7 7 6 6 6 6 5 5 5 5 4 4 4 5 5 5 6 8 9 9 11 12 14 16 17 16 10 8 9 9 10 8 10 9 9
Wind_Direction
23 15 14 17 24 175 185 185 179 174 171 174 172 172 175 178 178 179 181 180 188 190 191 200 203 201 207 211 214 222 229 237 250 200 134 152 168 166 154 137 99 66 66
6 1 4 1 349 239 196 184 181 178 175 174 173 173 177 180 183 185 183 188 194 195 194 196 200 198 208 208 213 217 219 223 245 225 163 163 173 171 158 146 114 76 59
358 350 348 337 313 269 218 194 191 185 178 175 177 179 180 182 186 189 189 193 199 200 198 200 200 199 201 198 205 211 213 216 231 226 172 148 145 157 154 145 135 106 77
348 341 334 326 312 288 250 216 204 197 190 186 185 185 184 183 184 185 189 193 195 196 197 200 199 202 203 198 202 207 210 213 212 209 185 162 154 158 171 174 179 169 157
340 334 328 317 301 275 248 226 212 205 201 194 189 187 187 187 187 185 187 193 192 190 189 191 189 186 189 196 201 203 206 212 206 205 196 174 173 175 189 178 179 163 161
334 329 326 315 299 274 251 234 220 213 206 200 198 194 193 194 187 191 191 191 191 191 187 182 174 175 179 184 187 196 212 219 211 207 209 207 197 189 170 172 164 180 191
328 325 321 313 301 286 264 242 230 222 214 210 207 203 203 196 189 193 195 194 191 190 186 180 179 179 179 176 166 159 157 141 253 239 228 217 198 189 176 178 183 201 182
325 322 318 310 300 291 273 254 242 229 220 216 212 209 208 200 194 195 192 196 193 191 191 189 186 181 182 177 174 173 171 163 184 233 243 224 193 166 176 181 166 149 123
323 319 315 307 297 288 274 261 251 237 229 224 217 212 210 204 199 197 190 191 194 194 193 195 195 191 185 185 183 182 183 168 130 107 87 109 119 136 149 145 156 171 184
320 313 308 301 292 285 277 268 253 240 234 226 222 217 214 211 202 199 194 193 196 193 192 196 203 200 190 190 193 193 198 187 170 155 144 137 141 143 160 184 175 183 182
312 307 303 298 291 286 281 269 255 242 236 230 225 222 219 216 208 204 200 198 197 194 193 195 198 200 201 198 201 206 202 185 180 176 170 162 157 155 158 153 150 172 181
308 304 301 298 294 285 277 269 255 242 237 233 229 226 221 216 214 209 207 207 201 198 198 197 196 197 202 200 199 199 189 183 183 185 187 186 182 172 156 143 126 102 79
307 303 301 299 292 284 275 268 257 241 236 234 228 226 223 214 212 214 212 210 208 203 201 196 191 194 198 202 203 195 190 190 189 195 197 193 179 159 146 140 134 126 120
303 302 300 298 294 287 275 263 254 244 238 235 232 229 225 215 209 204 207 209 207 206 196 194 194 196 198 200 195 197 199 197 197 202 196 182 163 162 175 174 176 176 181
300 299 297 293 292 289 280 267 257 252 247 244 238 231 225 223 215 204 197 200 196 190 174 174 182 185 194 196 198 198 195 194 202 201 191 183 180 181 183 181 183 186 200
295 296 294 292 290 288 287 282 261 255 259 255 251 244 239 236 225 213 210 208 201 188 177 183 190 194 197 196 196 197 198 199 198 194 193 192 190 189 186 181 188 199 207
288 291 290 289 289 288 288 286 287 276 261 257 254 248 243 240 233 221 214 210 206 195 194 195 197 198 199 199 199 199 199 197 192 193 195 194 192 192 192 191 194 202 210
287 287 285 284 285 286 285 284 283 283 283 276 260 251 248 244 234 222 214 206 205 203 201 201 201 200 199 199 200 200 198 193 192 196 195 194 193 194 197 198 199 203 205
286 284 284 283 282 282 283 283 281 277 274 276 278 263 250 246 233 223 211 206 201 201 200 202 202 200 199 199 198 197 196 195 193 193 195 195 194 195 200 202 202 203 205
280 280 283 283 281 280 280 280 280 279 276 272 268 267 257 239 227 215 211 207 206 206 202 202 202 199 197 197 196 194 195 196 195 197 196 194 193 196 201 201 201 201 204
283 282 281 279 276 276 278 279 280 279 275 272 269 264 259 248 233 222 214 210 208 207 204 202 201 199 198 194 193 195 196 197 197 195 196 194 193 195 199 200 201 203 204
281 280 279 278 278 276 275 275 275 276 276 276 279 275 265 258 240 228 222 216 212 208 203 202 202 200 196 194 192 193 197 199 197 195 195 194 193 195 194 197 198 197 199
280 281 280 277 276 277 277 273 273 274 276 277 277 278 272 259 248 237 227 222 215 210 203 201 203 201 198 195 193 194 198 200 197 191 191 192 192 193 193 196 197 195 198
280 279 280 280 279 276 276 275 272 273 274 274 272 271 271 267 258 247 237 227 220 214 207 204 204 203 197 193 195 197 201 195 187 190 190 190 191 191 192 195 197 198 199
281 279 279 280 280 280 280 279 275 272 272 273 273 273 272 270 266 258 245 230 220 215 210 205 203 202 201 197 194 195 198 193 186 184 186 190 192 191 191 193 193 193 195
285 283 282 281 279 279 279 279 278 275 275 276 276 274 274 272 269 263 252 236 222 214 207 204 200 196 193 196 197 195 196 198 195 190 185 187 189 190 188 190 192 192 191